Regional Weather Roundup
Issued by NWS Upton, NY

Current Version | Previous Version | Text Only | Print | Product List | Glossary On
Versions: 1 2 3 4 5 6 7 8 9 10 11 12 13 14 15 16 17 18 19 20 21 22 23 24 25 26 27
000
ASUS41 KOKX 241409
RWROKX

REGIONAL WEATHER ROUNDUP
NATIONAL WEATHER SERVICE NEW YORK NY
1000 AM EDT MON APR 24 2017

NOTE: "FAIR" INDICATES FEW OR NO CLOUDS BELOW 12,000 FEET WITH NO
SIGNIFICANT WEATHER AND/OR OBSTRUCTIONS TO VISIBILITY.

NYZ071-072-176-178-NJZ106-104-241500-
NEW YORK CITY METRO AREA

CITY           SKY/WX    TMP DP  RH WIND       PRES   REMARKS
Central Park   CLOUDY    56  43  61 CALM      30.20R
Wall St Helipt CLOUDY    54  45  71 NE7       30.18S
Bronx Bot Gard   N/A     54  39  58 S9        30.18S
LaGuardia APRT CLOUDY    55  44  66 NE6       30.18R
Kennedy INTL   CLOUDY    53  44  71 E5        30.19S
Breezy Point     N/A     50 N/A N/A E7          N/A
Newark/Liberty CLOUDY    54  45  71 E5        30.17S
Teterboro      MOSUNNY   55  45  68 VRB3      30.17R
$$

NYZ177-179-078>081-241500-
LONG ISLAND NEW YORK

CITY           SKY/WX    TMP DP  RH WIND       PRES   REMARKS
Jones Beach      N/A     50 N/A N/A E5          N/A
Matinecock PT  NOT AVBL
Farmingdale    MOSUNNY   52  43  71 SE5       30.18S
MacArthur/ISP  CLOUDY    53  40  61 E5        30.17F
Shirley        CLOUDY    52  39  61 S3        30.19F
Mt Sinai Harb    N/A     52 N/A N/A N2          N/A
Westhampton    CLOUDY    53  39  59 VRB3      30.20F
East Hampton     N/A     51  39  63 CALM      30.19F
Montauk          N/A     51  41  68 CALM      30.21S
$$

NYZ052-065-067-241500-
HUDSON VALLEY

CITY           SKY/WX    TMP DP  RH WIND       PRES   REMARKS
White Plains   CLOUDY    52  44  74 SE3       30.17S
Larchmont Harb   N/A     46 N/A N/A NE7         N/A
Croton O-T Hud   N/A     48 N/A N/A MISG        N/A
Newburgh       PTSUNNY   55  48  76 VRB5      30.18R
Montgomery     CLOUDY    56  47  71 CALM      30.16R
Poughkeepsie   CLOUDY    58  44  60 CALM      30.16S
Albany         PTSUNNY   57  41  55 N6        30.20R
$$

NJZ001-105-106-008-010-013-015-019>022-104-241500-
NEW JERSEY

CITY           SKY/WX    TMP DP  RH WIND       PRES   REMARKS
Newark/Liberty CLOUDY    54  45  71 E5        30.17S
Teterboro      MOSUNNY   55  45  68 VRB3      30.17R
Caldwell       MOSUNNY   53  43  68 CALM      30.18R
Somerville     CLOUDY    53  45  74 MISG      30.16R
Linden           N/A     53  45  74 CALM      30.18S
Sussex         CLOUDY    52  47  83 CALM      30.16S
Andover          N/A     52  47  83 CALM      30.16S
Trenton        CLOUDY    51  43  74 NE6       30.16R
Millville      CLOUDY    52  47  83 E10       30.12F
Atlantic City  CLOUDY    53  46  77 NE14      30.13F
Wrightstown    CLOUDY    50  45  83 E6        30.13S
Toms River     CLOUDY    51  46  83 E6        30.17S
Belmar         CLOUDY    50  41  71 E8        30.18R
$$

PAZ047>061-062-071-241500-
EASTERN PENNSYLVANIA

CITY           SKY/WX    TMP DP  RH WIND       PRES   REMARKS
Philadelphia   CLOUDY    53  41  63 NE9       30.15S
Allentown      CLOUDY    54  45  71 E3        30.16R
Scranton       CLOUDY    56  39  53 N5        30.13F
$$

CTZ002-004>006-009-010-012-RIZ004-006-007-MAZ004-011-015-241500-
SOUTHERN NEW ENGLAND
 IN CT

CITY           SKY/WX    TMP DP  RH WIND       PRES   REMARKS
Bradley INTL   CLOUDY    56  42  59 CALM      30.19R
Hartford       PTSUNNY   56  44  64 S3        30.18S
Danbury        CLOUDY    53  45  74 N3        30.19R
Wtrbury/Oxford PTSUNNY   54  41  62 CALM      30.20R
Bridgeport     CLOUDY    51  46  83 E3        30.19S
Meriden        CLOUDY    55  44  66 S6        30.19S
New Haven      PTSUNNY   50  47  89 CALM      30.19F
Chester          N/A     55  43  62 CALM      30.18F
Groton         PTSUNNY   49  44  83 S6        30.20R
Wilimantic     MOSUNNY   58  43  57 VRB3      30.19S

 IN RI

CITY           SKY/WX    TMP DP  RH WIND       PRES   REMARKS
Providence     PTSUNNY   55  46  71 S8        30.19S
Block Island   CLOUDY    52  42  69 S6        30.20F
Westerly       MOSUNNY   56  43  61 VRB6      30.20S
 IN MA

CITY           SKY/WX    TMP DP  RH WIND       PRES   REMARKS
Boston         PTSUNNY   58  42  55 SE5       30.17R
Worcester      MOSUNNY   63  32  31 VRB3      30.16S
Westfield      MOSUNNY   57  42  57 CALM      30.18S
Provincetown   SUNNY     53  43  68 S13       30.19S
Nantucket      MOSUNNY   46  42  86 S8        30.21F
$$

ANZ330-335-338-340-345-350-353-355-241500-
COASTAL MARINE OBSERVATIONS


STATION/POSITION TIME  SKY/WX   TEMP    WIND        PRES    VSBY  WAVE
                                AIR SEA DIR/SP/G                  HT/PER
                 (UTC)          (F)     (DEG/KT/KT) (MB)    (MI)  (FT/S)
NY HARB ENTRANCE 1250            49 50   80/  8/ 10 1021.7          3/12
20 S FIRE ISLAND 1350            47 48   70/ 10/ 10 1021.4          3/11
GREAT SOUTH BAY  1330            50 56  100/  6/  6   N/A
23 SSW MONTAUK P NOT AVBL
15 E BARNEGAT LI 1330               51                N/A           3/13
HUDSON CANYON    1250            48 47   70/ 14/ 16 1020.7          4/12
KINGS POINT      1348            48 47   40/  5/  6 1021.9
EXECUTION ROCKS  NOT AVBL
CENTRAL LI SOUND 1315            47     170/  2/  4   N/A           0
EASTERN LI SOUND NOT AVBL
ROBBINS REEF     1348            51      90/  4/  5 1022.0
$$


>>>>>>>>>>>>>>>>>>>>>>>>>>>> KEY <<<<<<<<<<<<<<<<<<<<<<<<<<<
>                                                          <
>     SKY/WX - Sky Condition/Present Weather               <
>     TMP    - Temperature in Fahrenheit                   <
>     DP     - Dew Point in Fahrenheit                     <
>     RH     - Relative Humidity in Percent                <
>     WIND   - Direction (from) and Speed in MPH           <
>     PRES   - Mean Sea Level Pressure (inches of Hg)      <
>     WCI    - Wind Chill Index                            <
>     VSB    - VISIBILITY IN MILES                         <
>     HX     - HEAT INDEX                                  <
>     TC     - TEMPERATURE IN CELSIUS                      <
>     VRB    - VARIABLE WIND DIRECTION                     <
>                                                          <
>>>>>>>>>>>>>>>>>>>>>>>>>>>> KEY <<<<<<<<<<<<<<<<<<<<<<<<<<<




USA.gov is the U.S. government's official web portal to all federal, state and local government web resources and services.